User: anonymous   Login
Location: Unspecified
(0.0000°N, 0.0000°E)
Time: 00:21:24
(UTC+02:00)
Language:

Palapa 6 Rocket - Orbit

View from above orbital plane
View from above orbital plane
View from above satellite
View from above satellite

Ground track
Ground track

The orbit data is extracted from the following two-line orbital elements,

1 20571U 90034B   16270.43049486  .00000741  00000-0  61413-4 0  9996
2 20571  22.7465 316.9239 0509494 161.7109 200.2397 14.11717727354713
Epoch (UTC): 26 September 2016 10:19:54
Eccentricity: 0.0509494
inclination: 22.7465°
perigee height: 485 km
apogee height: 1222 km
right ascension of ascending node: 316.9239°
argument of perigee: 161.7109°
revolutions per day: 14.11717727
mean anomaly at epoch: 200.2397°
orbit number at epoch: 35471

The dashed part of the orbit path shows where the satellite is in the earth's shadow,  

DLR